GFSSW_500_rhum_000.txt.gz
RH
2 1 2 2 2 2 1 1 1 1 1 1 1 2 3 2 2 2 2 13 10 15 49 68 90 79 92 89 99 78 78 81 77 74 30 32 26 16 7 4 7 9 10 9 17
2 2 2 2 1 2 2 1 1 1 1 1 1 0 3 2 2 2 2 2 3 18 52 67 83 62 88 89 92 80 80 77 56 41 72 51 25 23 30 4 3 9 12 12 13
2 2 2 2 2 2 2 2 2 1 1 1 1 1 2 3 2 2 2 1 3 13 38 57 60 55 62 74 86 82 73 58 25 26 41 38 26 26 17 3 2 8 8 11 16
4 4 2 2 2 2 2 1 2 2 1 1 1 1 1 2 2 3 2 1 1 14 35 58 50 48 69 88 97 94 84 45 39 29 28 10 9 8 4 4 4 4 7 9 12
2 3 5 4 2 2 2 2 2 2 2 1 1 1 1 1 2 2 3 2 1 11 38 61 60 52 45 66 85 76 71 46 43 23 16 5 6 6 3 4 4 4 6 6 3
2 2 2 4 5 3 2 2 2 2 1 2 1 1 1 1 2 2 4 2 1 9 40 48 53 58 42 48 63 69 51 55 60 10 6 3 6 7 6 4 4 4 4 4 5
2 2 2 2 4 4 4 2 2 2 2 1 2 2 1 1 1 2 4 2 1 1 32 64 67 46 44 41 69 46 43 31 40 12 12 18 7 7 6 5 5 4 4 4 8
3 3 2 2 2 3 3 3 4 2 2 2 1 1 2 1 1 1 3 3 2 1 8 35 41 35 43 32 53 56 31 49 37 16 32 52 23 14 28 16 5 5 4 4 4
4 4 3 2 2 2 1 1 1 2 3 2 2 1 2 2 1 1 2 3 2 2 2 13 21 31 27 20 25 39 26 65 56 21 62 87 73 74 52 45 35 5 4 4 5
7 6 4 3 2 2 2 2 2 1 1 2 2 2 1 2 1 1 1 2 3 2 2 5 12 18 18 13 6 21 25 61 65 82 78 78 76 71 60 51 39 10 4 5 4
8 8 6 5 3 3 3 2 2 2 2 1 1 3 2 1 3 1 1 3 3 3 2 3 4 3 8 14 15 19 43 45 80 74 84 89 88 79 78 68 61 18 5 4 6
8 9 9 8 6 4 4 3 3 2 2 2 1 1 3 2 2 2 1 1 3 2 2 2 2 10 32 24 15 8 30 54 78 79 85 96 99 81 81 74 76 54 32 10 9
10 9 10 9 9 8 6 4 4 4 3 3 2 1 3 2 2 3 2 1 2 3 2 2 6 23 30 23 11 5 18 43 58 81 82 91 84 78 85 72 72 88 70 60 46
12 11 10 9 9 9 7 5 4 4 4 3 2 2 2 3 2 2 3 1 1 3 3 2 7 26 18 20 18 8 15 46 67 83 80 83 62 69 88 80 68 59 71 74 68
14 12 10 10 10 10 9 7 4 5 4 5 4 3 3 4 4 2 4 3 1 2 2 4 3 12 12 11 14 13 23 44 82 91 86 76 65 43 69 83 60 56 55 67 72
19 14 14 12 11 10 11 10 7 5 5 7 5 4 4 4 7 3 3 4 1 2 2 4 7 10 13 17 20 13 75 85 77 81 78 48 44 38 47 52 76 65 55 58 69
26 23 20 17 14 12 12 12 9 7 9 8 5 3 3 6 9 4 4 5 4 2 2 2 5 9 17 26 27 17 50 68 68 82 80 67 43 32 43 52 56 56 60 58 66
30 31 27 26 21 17 15 14 11 9 8 6 4 3 3 19 16 9 6 8 6 3 3 3 5 6 10 19 30 16 44 57 77 77 76 72 23 32 49 58 60 64 64 56 62
36 37 37 35 25 22 20 16 13 12 8 6 4 4 8 23 32 11 6 10 12 7 4 4 4 6 16 15 28 19 37 59 78 73 68 70 46 29 41 51 60 65 69 64 63
51 44 43 40 37 28 25 20 17 14 8 5 5 8 13 45 42 16 7 8 14 20 10 6 5 5 8 17 27 30 30 59 74 69 65 61 47 32 39 38 36 56 62 62 67
55 55 52 48 46 36 28 23 21 15 10 7 6 6 13 59 49 32 12 11 10 16 29 15 7 6 6 6 10 23 27 47 58 68 63 57 52 48 41 45 45 47 57 58 67
58 58 62 56 49 42 33 27 24 16 11 6 6 11 25 36 60 36 25 16 24 41 38 32 28 7 7 6 8 11 16 28 52 50 64 57 42 44 38 34 47 62 53 66 67
60 66 68 64 55 46 39 31 27 21 13 8 5 8 29 23 35 56 52 35 66 75 80 58 35 18 8 13 8 10 12 16 42 53 57 59 39 35 31 44 56 61 59 68 69
82 81 75 75 64 54 44 36 30 23 17 10 9 16 30 34 24 39 62 63 74 85 73 70 39 25 6 5 9 10 12 33 32 46 43 32 25 24 35 43 47 51 59 56 56
89 85 87 80 73 63 54 44 34 26 21 16 12 25 36 42 30 19 55 62 78 90 89 72 49 27 10 7 14 11 9 10 16 19 29 16 35 44 39 41 53 43 44 50 44
86 83 81 85 78 68 59 49 38 27 23 20 18 35 42 34 40 27 47 81 58 87 82 67 49 26 12 10 18 24 19 14 19 38 34 45 50 51 54 60 49 56 58 44 26
68 69 89 76 72 66 55 48 38 27 24 26 37 29 46 49 41 30 35 78 79 63 68 66 64 47 24 24 20 39 30 25 40 45 42 55 50 57 59 56 55 50 52 44 40

GFSSW_500_rhum_003.txt.gz
RH
2 2 2 2 1 2 2 2 2 1 1 1 1 1 2 2 2 2 2 3 6 15 47 71 82 76 81 72 67 64 63 44 47 47 38 21 10 4 3 5 10 11 10 6 18
2 2 2 2 2 2 2 2 2 2 1 1 1 1 2 2 2 2 2 1 4 14 46 66 78 83 74 69 61 60 44 24 30 35 30 19 20 7 3 3 7 8 10 10 12
2 2 3 2 2 2 2 2 2 2 2 1 1 2 1 2 2 3 2 1 1 13 35 43 62 69 69 68 69 83 65 37 34 28 25 20 12 6 3 2 5 8 8 12 14
3 2 2 2 4 2 2 2 2 2 2 2 1 2 1 1 1 1 3 2 0 6 16 22 56 64 59 68 80 82 49 47 58 29 15 8 5 3 4 3 4 7 8 7 12
4 3 2 2 1 3 4 2 2 2 2 2 2 2 2 1 1 2 2 2 0 1 6 35 50 49 55 72 88 83 50 40 39 16 6 6 5 4 4 4 4 5 7 3 11
5 4 3 2 2 1 2 4 4 2 2 2 1 2 2 2 1 2 2 3 1 0 7 28 52 56 49 63 78 64 46 45 26 9 4 6 5 4 4 4 4 4 6 4 6
5 4 3 3 3 2 2 2 3 4 3 2 2 2 2 2 1 1 2 3 2 0 3 32 54 52 40 67 67 61 43 33 44 10 7 7 3 4 2 3 4 4 4 7 3
5 5 5 4 5 4 2 2 1 1 1 3 3 2 2 2 2 1 1 3 3 1 2 15 32 53 41 29 49 61 27 28 22 13 12 11 19 24 26 10 4 3 4 5 7
6 6 6 6 6 5 3 3 2 2 2 1 2 3 2 2 2 1 1 2 3 2 2 4 8 22 30 24 31 43 23 36 19 40 33 42 34 42 55 47 32 4 3 4 5
9 8 7 6 7 6 5 4 3 3 3 2 2 1 2 2 1 3 1 1 3 2 2 2 3 10 11 10 14 32 33 30 36 53 64 76 67 64 55 55 46 4 4 4 5
11 12 8 7 7 7 6 6 4 4 3 3 2 2 1 1 2 2 2 1 2 3 2 2 2 2 6 13 24 45 39 62 83 87 79 87 81 72 69 65 70 24 0 6 9
13 13 12 10 8 7 6 6 6 5 5 4 4 3 2 2 2 2 2 2 1 2 3 2 2 5 24 22 20 32 42 57 79 83 80 85 85 79 83 78 85 85 56 10 12
14 15 15 13 11 8 6 6 6 5 6 4 4 4 3 2 1 3 2 3 2 2 2 3 3 9 16 17 14 18 38 51 65 82 87 89 84 82 76 77 86 75 77 72 28
16 17 19 15 14 11 8 7 6 6 6 6 5 4 4 2 2 1 3 2 3 1 2 2 4 12 12 14 13 8 22 47 68 72 61 87 59 76 89 84 75 69 63 76 75
21 20 20 18 17 13 11 9 8 6 6 7 6 6 5 4 3 3 3 3 2 3 1 2 3 7 16 10 17 8 11 45 64 73 65 66 61 71 79 63 72 66 61 56 61
24 22 25 22 20 17 14 11 9 8 6 8 7 6 6 6 4 3 2 4 2 4 2 1 5 6 12 40 29 28 31 20 39 65 67 41 53 33 46 52 69 70 69 72 58
29 26 26 27 25 23 22 17 14 10 9 10 9 8 8 6 5 4 2 3 4 2 3 1 2 6 12 52 63 45 57 64 33 48 42 31 33 21 45 52 63 75 77 75 74
33 31 30 34 33 28 25 24 18 14 11 13 11 10 8 7 5 4 3 2 4 3 4 2 1 3 11 28 46 46 46 50 66 49 43 42 15 26 48 55 55 57 72 76 60
38 37 39 39 40 34 30 26 22 21 17 15 15 12 8 6 5 5 3 4 5 5 4 4 2 6 19 33 35 49 46 40 50 67 67 55 21 20 46 56 59 61 60 64 64
45 44 43 46 49 45 38 31 29 26 22 22 19 14 10 7 5 4 5 7 6 7 8 7 4 4 23 52 56 36 47 54 44 56 69 58 28 11 30 40 55 52 61 65 62
56 51 56 55 54 56 49 43 36 32 29 25 23 18 12 6 7 5 5 9 9 10 10 13 10 6 14 40 52 50 42 61 52 38 54 56 35 22 24 28 42 44 42 54 59
69 69 69 72 71 61 58 54 48 39 36 32 26 22 15 10 8 5 4 23 23 15 14 23 21 10 5 8 34 48 44 34 52 26 26 43 50 33 43 45 38 36 27 44 61
77 75 81 84 85 80 68 64 57 48 41 36 30 26 18 10 11 8 5 40 58 36 18 18 24 25 11 8 7 17 27 37 45 47 35 36 32 35 45 52 43 43 38 67 63
81 78 84 92 94 91 84 71 65 57 48 42 35 29 21 12 13 13 15 56 72 68 39 24 19 21 17 6 6 8 7 19 37 42 36 20 25 25 43 56 51 39 56 61 70
82 83 92 96 94 91 85 78 71 64 54 46 38 31 22 13 13 12 30 50 68 77 64 47 26 30 18 15 11 8 8 6 7 15 22 14 10 10 34 51 53 44 53 52 74
100 100 100 100 100 99 99 94 85 73 63 53 41 32 25 18 15 33 37 44 62 83 80 68 48 59 26 28 26 10 8 9 8 10 13 8 9 9 19 26 48 49 59 44 62
100 100 100 100 100 99 99 98 94 87 74 57 44 36 29 20 17 36 48 40 49 67 91 87 68 79 47 47 27 29 10 15 10 10 11 12 10 8 20 49 52 56 62 54 64

GFSSW_500_rhum_006.txt.gz
RH
2 2 2 2 2 2 2 2 2 2 2 1 1 1 1 2 2 2 2 2 10 24 50 61 68 77 83 86 75 52 97 99 87 91 13 5 4 3 7 9 10 11 12 24 40
2 2 2 2 2 2 2 2 2 2 2 2 1 1 1 1 2 3 2 1 7 16 50 59 62 72 84 75 64 40 100 100 54 63 16 9 5 3 4 6 8 10 12 11 15
4 3 3 2 1 2 2 2 2 2 2 2 2 1 2 1 1 2 2 1 3 11 35 48 53 64 74 70 59 42 94 66 48 33 25 8 6 3 3 5 6 7 10 14 13
4 4 3 3 2 1 1 3 2 2 2 2 2 2 2 1 1 1 2 2 0 9 12 37 50 63 66 66 58 47 36 35 45 25 14 5 2 4 3 4 5 8 6 12 15
4 4 4 4 3 2 2 1 2 3 2 2 2 2 2 2 1 1 2 3 1 3 11 30 42 58 49 70 73 50 37 41 31 16 8 5 3 4 4 4 4 6 4 8 14
5 5 4 4 3 3 3 2 1 2 3 3 2 2 2 2 2 1 1 2 2 0 10 12 50 54 50 63 72 62 34 38 19 6 6 5 4 4 4 4 4 4 2 7 12
7 6 5 4 4 4 4 4 3 1 1 2 3 2 2 2 2 2 1 2 3 1 1 13 44 49 46 61 73 66 26 30 11 4 6 4 3 3 3 4 4 4 6 4 6
8 7 6 6 5 5 5 5 4 2 2 2 1 1 2 2 2 2 2 1 2 2 1 4 23 44 46 45 52 57 41 64 10 7 6 8 51 4 5 3 4 4 4 7 4
10 9 8 8 7 6 5 5 4 4 4 3 3 2 1 1 2 2 3 1 2 2 1 2 8 26 42 48 50 50 75 84 24 8 11 14 72 44 43 35 5 3 4 4 6
12 10 8 9 9 7 6 6 5 5 4 4 3 3 2 2 1 2 2 2 1 2 2 2 3 10 20 30 26 77 61 85 72 19 24 19 48 48 39 42 31 4 3 4 5
13 12 10 10 10 9 8 7 6 5 6 6 4 4 3 2 2 1 2 2 2 2 2 2 2 3 12 17 31 80 86 85 84 74 70 69 63 52 42 34 26 8 3 5 6
16 14 12 12 12 12 11 9 8 6 6 6 6 5 4 4 3 2 1 2 2 2 2 2 2 8 20 25 27 70 78 81 83 80 79 87 75 66 57 47 33 33 38 7 8
13 16 15 13 13 13 13 12 10 9 6 7 5 5 5 4 4 3 2 2 2 3 2 2 2 8 12 15 24 36 71 84 94 75 80 94 83 66 65 63 53 62 63 58 20
16 16 15 14 15 15 16 16 13 11 9 8 6 5 5 5 4 4 2 2 2 2 3 2 2 3 6 8 16 28 32 86 90 93 82 66 91 86 81 51 45 56 66 74 75
20 21 21 22 19 16 17 18 16 14 10 8 7 5 5 5 5 5 4 3 2 2 2 2 2 2 4 5 12 15 62 52 80 92 96 100 91 92 69 62 58 62 57 60 61
28 25 26 25 24 25 22 19 19 17 12 11 8 7 6 6 5 5 5 4 3 3 3 3 3 2 3 8 16 21 70 77 74 84 84 90 93 77 83 49 67 76 65 66 59
28 28 28 31 31 28 28 26 23 16 16 16 13 11 9 7 6 6 6 6 5 3 2 3 2 3 2 6 29 28 46 66 73 77 79 89 90 51 82 70 55 75 70 73 85
34 33 31 32 36 34 32 32 23 20 20 22 20 16 15 10 8 7 7 6 6 4 2 3 4 3 2 4 16 18 26 66 69 67 72 88 79 42 24 53 53 62 68 74 80
37 40 40 43 44 44 37 30 27 27 27 29 26 23 19 14 10 8 8 7 6 4 4 5 4 5 3 3 15 25 34 52 68 69 62 59 58 19 34 49 54 59 69 72 71
47 49 49 48 52 50 45 33 30 32 32 34 29 26 23 20 14 12 10 8 6 5 5 7 6 6 4 3 5 35 28 60 66 69 70 68 71 70 35 46 54 57 59 60 61
58 64 59 57 57 56 48 45 44 40 44 40 35 32 27 25 19 16 12 10 8 9 8 10 8 22 8 4 3 8 54 51 70 70 67 72 68 72 29 43 53 69 58 61 63
54 56 63 77 73 64 56 60 58 49 48 51 44 36 33 30 24 21 16 11 9 10 10 11 15 10 8 7 6 32 38 64 63 56 70 64 56 63 70 25 35 43 66 63 50
12 36 60 71 75 87 85 80 71 63 57 60 55 48 42 34 30 25 19 12 8 8 19 32 17 62 17 30 22 22 39 50 64 70 66 74 66 62 69 29 27 40 36 39 35
6 15 55 76 93 95 96 81 83 78 70 67 63 57 50 41 38 29 21 16 13 14 21 20 45 16 41 25 40 20 7 30 53 63 62 62 70 71 59 17 23 37 48 42 47
18 50 69 98 100 100 100 98 97 95 85 86 72 62 59 52 46 34 22 20 26 23 37 34 27 84 34 28 70 65 56 24 32 41 63 61 66 69 74 20 6 25 50 52 51
38 71 100 100 100 100 100 100 98 98 96 98 87 77 69 58 49 33 22 21 41 44 41 58 56 50 92 84 80 74 73 57 44 13 44 56 59 63 65 20 12 10 39 52 48
48 59 80 100 100 100 100 96 98 97 98 100 96 88 76 66 53 42 27 23 39 44 34 54 67 61 84 91 83 81 72 70 56 32 19 25 12 18 28 28 8 8 19 47 50

GFSSW_500_rhum_009.txt.gz
RH
3 3 2 2 2 2 2 2 2 2 2 2 1 1 1 1 2 2 2 2 13 22 46 59 73 75 83 37 20 71 84 96 97 91 70 4 5 8 8 14 19 18 32 32 43
3 3 3 2 1 1 2 2 2 2 2 2 2 1 1 1 1 3 2 1 9 16 41 57 62 77 82 62 34 88 94 97 88 97 94 6 19 4 8 9 9 10 16 24 33
4 4 3 3 2 2 1 1 2 2 2 2 2 2 2 1 1 2 2 1 4 13 34 46 54 78 80 73 39 86 97 94 90 89 98 30 41 3 5 5 6 7 10 22 12
4 4 4 3 3 2 2 2 1 2 3 2 2 2 2 2 1 1 2 2 1 8 17 40 51 70 75 65 48 51 99 98 99 61 98 75 76 5 3 18 5 6 8 10 14
5 5 5 4 4 3 3 2 2 2 1 2 2 2 2 2 2 1 1 3 1 4 15 27 43 63 70 71 78 63 90 86 88 73 87 92 66 7 4 4 5 2 5 10 12
7 7 6 5 4 4 4 3 3 3 2 1 1 2 2 2 2 2 1 2 3 1 8 19 44 55 73 62 79 81 81 80 84 83 25 97 75 5 4 4 5 1 4 8 13
7 7 6 6 5 5 5 5 5 4 3 2 2 1 1 2 2 2 2 1 2 2 2 15 26 42 58 50 64 75 75 74 52 86 28 38 32 4 4 4 4 4 4 5 14
8 7 8 7 6 6 5 5 5 5 4 3 3 3 2 1 2 2 2 2 2 2 1 8 18 29 46 64 73 72 58 78 84 79 44 5 44 3 3 4 3 4 7 4 5
11 9 9 8 8 7 8 6 5 5 5 4 4 3 3 2 1 1 2 2 1 2 2 1 7 21 30 30 57 74 74 78 97 44 61 6 97 41 9 4 3 3 4 5 4
13 10 10 10 10 9 8 8 7 6 5 5 4 4 3 3 2 2 1 2 2 1 2 2 3 15 30 35 34 81 76 76 92 74 69 5 93 46 23 12 2 3 3 4 4
11 10 10 11 11 10 10 11 10 8 8 6 4 4 4 3 3 2 2 1 2 2 1 2 2 3 14 29 39 73 73 70 79 93 26 80 92 39 38 21 4 2 3 3 3
14 14 11 10 10 11 10 10 10 11 10 8 6 5 3 4 4 3 3 2 2 2 2 1 2 2 16 36 41 73 71 76 87 82 84 82 94 97 69 34 15 3 2 4 5
14 16 16 16 15 12 12 12 11 11 11 11 8 7 5 4 5 4 4 3 2 1 2 2 2 2 7 32 49 68 69 71 74 77 98 91 97 96 94 57 37 21 10 5 6
21 21 20 18 17 17 16 15 13 13 10 11 11 8 7 5 4 4 4 4 3 2 2 2 2 2 4 14 31 61 71 72 70 91 98 82 84 99 76 87 36 36 37 30 22
24 24 26 24 21 20 20 20 20 19 15 10 10 10 8 7 5 4 4 4 4 3 2 3 3 2 2 3 24 44 65 71 73 76 88 88 75 96 98 86 79 40 42 34 31
28 25 25 23 24 20 23 23 22 22 17 16 13 13 11 8 7 5 5 4 4 4 3 2 3 3 2 2 8 26 65 69 64 68 72 83 86 73 90 97 92 82 55 44 45
26 26 23 24 22 23 24 26 25 19 21 21 18 17 16 13 10 8 7 6 5 5 5 4 3 2 3 2 3 28 60 68 64 62 60 70 83 90 86 86 85 85 99 86 61
33 32 29 32 30 27 24 25 20 17 23 32 24 22 21 21 16 11 9 8 6 5 6 5 4 3 3 2 3 7 31 55 65 60 59 64 67 66 91 80 87 94 80 90 80
34 38 44 42 46 41 33 25 18 21 33 31 34 31 26 27 24 19 14 12 8 7 6 7 5 7 4 4 4 21 29 46 56 61 57 58 62 80 91 91 81 79 76 81 83
34 37 45 44 50 55 45 26 28 32 36 39 35 38 35 34 33 25 21 18 13 9 8 6 20 32 13 11 4 6 27 48 58 55 57 54 58 67 73 67 76 84 77 80 88
30 30 29 30 33 45 39 35 43 45 49 44 43 43 43 49 53 46 25 28 25 16 10 7 8 37 55 5 5 5 8 49 55 57 52 57 58 55 69 92 72 75 71 74 87
22 21 20 16 20 27 31 56 63 55 64 48 50 45 50 58 56 56 46 46 56 23 15 10 9 13 26 35 47 40 15 32 54 58 56 53 53 65 65 70 72 78 75 79 89
11 8 5 5 5 8 19 45 67 74 70 74 53 51 59 56 53 50 41 44 61 35 30 36 12 18 45 46 41 14 7 15 32 54 59 60 53 59 82 67 72 79 74 59 86
4 4 6 5 4 6 27 41 58 97 96 92 72 68 71 65 57 50 44 46 64 39 21 22 68 17 47 37 55 49 34 36 37 37 40 57 63 73 66 70 76 72 56 60 85
18 13 13 9 28 49 34 67 100 100 98 100 99 88 76 82 69 60 52 52 43 40 23 14 11 39 25 77 76 60 44 43 39 39 44 45 61 64 69 75 73 72 53 47 60
21 22 22 19 16 45 100 100 100 100 100 97 96 100 100 93 78 71 71 67 53 60 26 16 15 36 68 73 72 72 65 55 48 41 41 48 53 58 66 88 84 73 52 33 67
41 44 46 30 29 37 55 100 100 100 99 100 100 87 96 100 99 91 91 85 59 98 74 21 81 86 81 84 87 80 54 64 63 58 50 45 37 51 62 70 69 71 79 49 14

GFSSW_500_rhum_012.txt.gz
RH
3 3 3 2 1 1 1 2 2 2 2 2 2 1 1 1 2 2 2 2 10 10 34 38 24 28 25 42 76 98 99 97 98 87 75 12 8 28 8 12 26 75 35 42 35
4 3 3 3 2 2 2 1 1 2 2 2 2 2 1 1 1 2 2 1 7 10 23 36 31 29 27 58 86 89 80 86 96 68 93 42 10 4 6 8 10 8 17 16 40
4 4 3 3 3 3 2 2 2 1 2 2 2 2 2 1 1 1 3 1 2 9 15 29 37 26 48 21 93 66 95 99 77 70 67 97 42 3 4 5 6 6 8 8 10
4 4 4 5 4 3 3 3 2 2 1 1 2 2 2 2 2 1 2 2 1 7 10 20 34 45 47 37 60 95 74 78 96 97 65 99 58 22 11 39 5 4 5 7 9
6 6 6 6 5 4 4 4 3 2 2 2 1 2 2 2 2 2 1 2 2 2 11 25 29 40 54 60 63 83 90 94 93 91 61 96 88 59 26 5 4 3 2 6 10
6 6 6 6 5 5 5 4 4 4 3 3 2 1 1 2 2 2 1 1 2 1 6 22 35 42 54 58 70 78 78 82 79 82 85 84 88 36 8 4 3 3 2 4 7
7 6 6 6 7 6 5 5 4 4 4 3 3 3 2 2 1 2 2 1 2 2 2 12 40 41 53 50 52 79 78 77 72 73 93 64 97 56 8 4 3 3 3 2 8
11 9 7 7 7 7 8 7 6 5 4 4 3 3 3 3 2 1 2 2 1 2 2 4 21 32 44 54 47 56 72 78 78 88 84 40 98 46 5 4 4 4 6 2 8
11 11 9 8 8 7 7 7 7 6 5 4 4 3 3 3 3 2 1 2 2 1 2 2 4 16 38 33 51 46 74 72 77 93 93 29 70 94 41 3 3 3 4 3 4
10 9 9 8 9 9 9 8 8 6 6 6 5 5 4 4 3 3 2 1 2 2 1 2 2 4 12 23 30 39 69 70 72 66 83 83 14 33 62 68 11 3 2 3 3
11 11 12 12 12 10 9 9 8 8 8 6 6 6 5 4 3 3 3 2 1 2 2 1 2 2 4 14 20 38 74 69 84 96 96 96 81 37 40 68 23 2 3 2 3
15 12 12 12 14 14 13 11 11 8 9 8 7 7 6 5 4 3 3 3 2 2 2 2 2 2 2 12 28 24 74 72 81 86 98 97 79 47 59 77 38 5 2 3 2
22 22 20 18 17 16 15 15 13 10 8 10 8 8 9 6 6 4 4 4 4 3 2 2 2 2 2 4 16 33 62 73 79 90 90 92 95 97 97 64 50 16 2 3 4
26 24 24 23 21 21 19 20 16 14 10 10 10 10 10 10 7 6 4 4 3 4 3 2 2 2 2 2 8 21 39 69 73 88 89 74 90 82 94 52 47 22 11 3 2
26 25 26 24 23 22 19 22 19 18 13 13 9 10 12 10 10 8 6 5 4 4 4 4 2 2 2 2 4 14 33 64 69 85 78 85 95 99 94 98 84 39 22 18 9
27 26 24 25 30 24 22 21 20 19 12 18 13 13 13 14 12 10 8 6 5 4 3 4 3 2 2 4 3 14 63 62 64 72 90 91 78 64 94 59 90 95 82 31 28
27 25 24 25 26 25 27 24 21 16 16 15 17 13 16 18 18 14 11 8 6 5 4 4 4 3 2 5 12 7 54 60 58 61 63 73 86 52 95 88 72 92 97 69 44
24 23 24 27 30 24 27 26 22 18 19 27 25 17 13 19 21 18 14 13 8 6 6 4 4 4 5 2 11 10 39 39 56 57 57 48 66 68 89 85 69 95 90 96 59
24 26 32 31 32 32 30 23 16 23 28 30 39 36 33 19 29 24 19 16 14 10 8 7 6 7 6 10 4 8 28 16 52 56 58 54 54 44 65 78 66 92 97 96 93
16 17 22 22 23 25 27 19 22 27 34 48 44 44 43 51 45 49 26 20 17 16 12 10 10 19 17 11 4 4 14 25 37 52 52 50 55 67 58 71 79 78 93 90 70
14 14 14 13 14 14 13 13 18 30 42 45 39 36 40 59 56 57 48 40 32 25 21 16 12 19 48 10 11 14 5 16 36 39 49 50 52 55 62 64 62 58 58 87 79
7 7 7 9 11 11 12 13 18 19 40 53 66 55 46 48 60 59 61 55 54 56 52 33 19 12 28 56 44 18 6 5 23 32 40 46 47 57 58 62 69 73 60 51 30
3 3 5 6 5 8 9 9 11 15 22 65 90 64 66 66 53 57 57 56 58 55 53 55 45 32 18 47 60 47 20 28 20 26 40 44 44 48 58 64 84 84 69 60 76
3 4 11 17 11 10 10 8 8 11 16 47 100 100 81 68 71 54 59 57 56 57 60 58 61 43 25 20 55 62 35 23 33 31 15 48 53 41 53 60 71 94 86 87 68
26 27 32 24 24 38 99 49 9 7 16 87 97 99 100 90 80 69 62 64 62 64 65 65 51 57 40 46 67 66 60 56 53 14 28 11 52 60 46 60 75 79 88 74 72
41 38 34 37 33 29 70 100 95 18 39 100 98 100 98 92 99 80 70 71 71 72 69 67 56 51 47 67 64 76 71 57 50 30 8 22 36 34 55 50 68 95 66 87 72
42 38 46 70 59 48 29 84 100 100 100 83 100 95 99 96 93 81 77 69 65 77 76 79 57 58 35 29 82 76 63 73 63 46 42 42 10 38 40 49 49 77 79 86 92

GFSSW_500_rhum_015.txt.gz
RH
3 3 3 3 2 2 2 1 1 2 2 2 2 2 1 1 1 2 2 2 7 8 18 30 35 43 37 91 73 84 91 97 86 95 96 98 63 5 4 45 8 51 34 38 29
3 3 3 3 3 3 2 2 2 1 2 2 2 2 2 1 1 2 2 1 4 9 9 25 36 31 27 87 77 52 98 96 90 96 98 81 68 20 5 4 4 28 14 26 25
5 4 4 4 4 4 3 3 2 2 1 1 2 2 1 2 1 1 2 2 1 6 11 15 28 29 15 78 69 94 94 85 96 58 90 98 85 34 7 3 2 5 4 8 7
6 5 5 5 5 5 4 3 3 3 2 2 1 1 2 1 2 1 1 2 1 2 8 14 24 23 20 81 56 76 96 93 87 96 81 98 98 72 15 4 4 4 3 6 9
7 6 6 6 6 5 5 4 4 3 3 2 2 1 1 2 2 2 1 1 2 1 5 12 21 27 30 25 31 64 85 97 92 94 92 81 85 94 17 6 4 5 2 2 10
9 7 6 6 5 6 6 5 4 4 3 3 3 2 2 1 2 2 2 1 2 2 1 6 21 31 46 48 32 72 87 86 96 96 91 83 100 95 91 9 3 3 2 2 6
12 10 8 7 6 6 6 6 6 5 4 3 3 3 3 3 2 1 2 2 1 2 2 3 15 30 38 58 49 50 81 84 88 81 94 86 71 94 88 4 3 3 3 3 2
12 10 10 9 8 7 6 6 5 5 4 4 3 3 3 3 3 2 1 2 2 1 2 2 5 12 32 47 53 48 58 79 87 72 83 90 82 71 98 28 3 3 6 3 6
10 10 9 9 8 8 8 8 7 6 5 4 4 4 4 4 3 3 2 1 2 2 1 2 2 4 18 36 49 46 38 40 72 86 91 88 68 22 80 77 37 2 3 3 6
12 10 10 9 10 10 9 8 8 7 6 5 5 5 5 5 4 3 3 2 1 2 2 1 2 2 3 9 18 34 34 29 75 83 78 79 77 67 44 25 25 4 2 3 3
22 18 12 10 11 12 11 11 8 6 7 6 6 7 6 6 5 4 3 3 2 1 2 2 2 2 2 3 13 32 45 39 70 76 92 93 85 90 60 32 17 2 2 2 2
24 24 24 19 18 16 13 12 11 8 7 7 7 7 6 6 6 5 4 3 3 2 1 1 1 2 2 3 8 25 29 28 77 91 86 77 79 79 99 58 33 4 2 3 2
25 24 26 26 23 22 19 19 17 12 7 12 10 7 11 7 8 7 6 5 3 3 3 2 2 2 2 2 3 12 32 39 78 93 80 94 73 72 98 88 93 12 4 3 2
32 29 29 29 25 23 18 23 18 15 11 11 15 11 10 10 9 10 8 6 5 4 4 3 2 2 2 2 2 3 30 41 76 93 95 89 86 98 91 81 60 29 45 10 9
31 30 30 26 27 24 20 22 20 18 12 13 11 12 14 11 15 11 10 9 7 5 4 4 3 2 1 2 2 2 22 50 74 84 84 84 97 90 85 67 60 66 71 28 17
18 20 24 24 27 21 24 25 22 20 13 19 15 13 14 15 16 16 12 11 10 7 5 4 3 3 2 2 2 2 8 33 71 73 86 74 89 93 83 70 74 82 90 82 83
24 22 22 28 26 22 25 24 23 19 19 20 24 20 16 14 17 19 15 14 11 9 8 5 4 3 3 2 3 4 4 21 54 65 64 74 74 72 78 90 70 73 91 89 81
24 24 29 27 29 23 26 25 19 14 18 32 36 24 19 19 18 16 15 15 16 12 10 7 5 4 3 3 3 4 4 3 12 21 40 57 68 43 55 73 78 81 90 85 78
20 22 22 22 22 23 24 22 18 21 25 27 36 25 25 24 20 26 18 15 19 18 14 10 7 5 5 4 4 8 5 6 14 30 44 34 53 63 64 64 81 95 82 78 94
12 12 11 11 11 13 15 16 15 20 23 29 28 30 28 34 39 35 29 22 15 22 21 15 12 8 7 7 8 6 9 16 14 12 18 13 45 31 54 55 55 62 75 76 84
9 8 6 7 7 7 6 8 9 11 19 31 36 37 35 34 38 34 22 32 31 27 28 23 16 13 10 9 9 7 6 12 21 21 16 25 7 26 58 63 68 63 64 64 64
6 5 6 6 6 6 6 6 7 7 13 22 28 41 50 52 47 40 29 23 55 53 50 34 32 17 14 12 17 17 13 13 12 13 24 32 8 34 56 63 76 67 58 63 68
3 3 2 3 4 5 5 5 6 7 8 17 28 77 77 69 59 49 39 36 55 56 55 55 37 35 22 19 18 22 25 17 16 16 9 20 4 13 50 65 75 77 93 92 90
1 2 4 7 8 9 14 6 6 6 7 13 22 52 54 64 75 56 49 43 58 55 54 57 53 33 26 21 28 22 31 37 28 14 6 6 6 6 41 55 60 82 90 83 97
28 19 32 23 38 34 31 31 25 11 12 14 18 26 59 58 87 62 58 48 53 54 57 57 59 51 37 38 35 32 37 60 40 16 14 8 8 10 27 52 56 68 71 74 76
85 66 66 52 49 47 44 42 46 48 33 15 34 36 35 100 99 92 70 55 55 61 61 60 59 59 53 54 54 36 45 59 66 46 32 18 7 8 16 42 58 69 62 66 72
100 90 69 52 46 40 40 40 46 100 96 85 100 43 97 100 98 97 81 61 57 62 60 58 57 62 53 54 64 52 27 51 66 65 56 21 9 19 12 33 52 62 78 86 62

GFSSW_500_rhum_021.txt.gz
RH
4 4 3 3 3 4 3 2 2 2 1 2 2 2 2 1 1 2 2 2 5 8 12 16 28 25 34 84 88 70 74 74 78 55 50 51 20 23 38 16 40 56 41 33 34
4 4 4 4 4 4 4 3 3 2 2 1 1 2 2 2 1 1 2 2 2 6 13 18 20 20 30 62 83 74 73 91 65 53 35 64 47 71 64 10 13 30 40 37 28
6 6 5 5 4 4 4 4 4 3 3 2 2 1 2 2 2 1 1 2 2 3 9 18 10 18 13 23 58 85 76 63 51 53 35 35 63 54 67 10 5 4 10 32 36
7 6 6 6 5 5 5 5 4 4 4 3 2 2 1 2 2 2 1 1 2 2 2 5 9 14 16 29 76 98 82 62 65 68 49 44 42 54 84 35 4 5 5 6 14
11 9 8 6 6 6 5 5 5 5 4 4 3 2 2 1 2 2 2 1 1 2 2 3 8 13 20 20 53 80 70 47 50 81 41 28 40 49 65 46 9 4 2 2 7
14 12 10 9 7 6 5 5 5 5 5 4 3 3 2 2 2 1 2 2 2 2 2 2 7 13 27 22 75 74 61 47 34 37 22 33 40 55 62 60 28 13 3 3 5
14 14 12 10 9 8 6 5 5 5 5 5 4 4 3 3 3 2 1 2 2 1 2 2 7 12 28 31 65 48 61 44 38 50 43 57 49 50 61 91 96 83 39 5 3
20 17 12 10 9 8 6 6 6 6 6 5 5 5 4 4 4 3 3 2 2 2 1 2 3 11 24 27 40 41 50 45 42 43 37 75 41 60 63 71 83 81 48 4 4
21 21 18 13 9 8 7 7 6 6 6 6 7 6 5 5 5 4 4 3 2 2 2 2 2 3 18 22 27 35 37 46 48 52 40 43 52 54 76 87 96 92 28 4 7
26 26 23 19 14 10 7 8 8 9 9 7 7 7 6 6 6 6 4 3 2 1 2 2 2 2 4 5 8 21 42 59 57 68 60 47 54 69 88 94 97 63 15 4 6
26 25 23 21 20 16 13 9 7 8 10 10 9 8 7 7 7 7 6 4 3 3 2 2 2 2 2 4 13 33 37 64 65 71 50 41 64 66 84 91 83 100 45 3 4
24 27 27 20 20 17 16 15 12 11 9 9 11 11 8 7 8 8 7 6 4 4 3 2 1 2 2 3 7 15 27 50 71 74 61 63 61 69 74 91 96 59 60 4 4
15 17 16 17 16 18 17 15 14 14 11 17 10 10 14 5 9 8 8 8 6 5 4 3 2 2 2 2 3 7 11 43 67 72 80 68 50 49 66 75 85 72 31 8 3
9 9 10 14 13 15 19 16 15 15 12 13 20 15 11 12 7 12 9 10 8 7 5 4 3 2 2 2 2 3 7 45 67 82 84 76 54 48 54 59 64 92 33 12 4
4 6 8 11 11 8 10 15 19 19 13 14 13 16 18 16 13 19 12 11 9 12 8 6 5 4 3 2 2 2 8 35 68 78 78 74 55 37 40 47 61 85 40 46 9
4 4 4 5 7 8 10 10 10 14 11 18 13 16 19 17 17 17 15 14 12 11 10 8 6 5 4 3 2 2 7 23 64 71 72 53 51 26 39 50 72 64 73 83 41
21 14 15 9 9 6 9 9 10 7 10 14 15 18 21 22 19 17 16 15 14 12 12 10 9 8 5 4 3 2 3 9 36 52 8 51 50 16 50 56 58 66 79 80 77
24 25 27 18 15 17 19 10 8 6 9 10 12 16 21 24 23 22 19 15 15 15 13 13 12 11 9 7 4 3 2 2 3 10 9 24 25 4 44 62 65 74 84 79 68
24 22 22 20 20 24 20 19 8 10 12 15 21 23 18 17 19 21 21 20 22 23 20 17 14 14 11 9 6 4 3 2 2 4 9 6 9 9 24 55 80 75 81 69 77
14 14 16 16 17 16 20 19 19 18 17 19 20 22 21 22 19 20 21 20 20 20 22 20 16 18 16 11 7 6 6 5 3 2 3 2 2 2 15 34 73 68 47 53 64
5 6 6 8 8 8 9 14 17 16 17 17 18 18 21 25 25 25 25 18 20 21 21 17 16 17 19 14 10 7 7 6 6 4 3 2 2 2 4 25 47 69 60 56 53
2 2 2 2 3 3 5 6 8 9 9 14 14 15 15 22 26 29 31 25 18 18 24 22 16 14 15 18 12 10 8 7 6 6 5 4 3 3 3 6 30 45 61 52 57
6 4 3 2 2 2 2 3 3 5 5 6 9 12 13 15 24 34 28 37 26 20 24 22 20 18 14 18 15 12 10 8 8 6 6 5 5 5 5 7 12 39 51 36 55
19 14 14 11 9 6 4 3 2 3 4 5 5 6 9 12 18 28 35 41 37 29 24 27 24 20 16 19 17 12 12 11 10 9 8 7 6 6 8 7 7 12 46 60 51
30 30 35 35 39 34 30 15 6 6 11 7 5 5 5 9 12 22 32 46 51 43 33 31 26 24 19 17 17 13 12 11 10 9 8 7 8 8 6 8 8 7 19 50 55
43 50 53 68 80 98 67 68 62 30 22 73 54 13 6 7 9 14 34 56 74 67 54 41 36 32 20 21 24 19 12 10 8 11 12 11 10 11 10 8 10 12 12 21 29
77 80 69 77 98 91 100 97 85 99 97 68 41 92 68 17 11 11 20 60 77 76 72 61 46 42 28 31 26 28 13 13 11 10 12 10 10 12 15 12 9 8 7 12 19

GFSSW_500_rhum_024.txt.gz
RH
4 4 4 4 4 4 4 4 3 2 2 1 1 2 2 2 1 1 2 3 4 6 10 20 27 20 26 68 69 78 74 69 62 68 60 42 9 7 6 31 52 51 40 47 39
4 4 4 4 4 4 4 4 4 3 3 2 2 2 2 2 2 1 1 2 2 3 10 13 27 28 18 80 70 74 76 65 43 53 62 79 34 9 9 6 14 18 32 33 31
6 6 5 5 4 4 4 4 4 4 4 3 2 2 1 2 2 2 1 1 2 2 4 10 9 19 15 62 71 71 67 64 41 43 54 62 62 19 12 7 6 7 6 20 30
10 9 7 6 6 5 5 5 5 4 4 4 4 3 2 1 2 2 2 1 1 2 2 2 6 11 18 33 41 63 74 64 44 21 44 40 59 36 21 37 6 4 4 4 8
13 12 11 9 7 6 5 5 5 5 5 5 4 4 2 2 1 2 2 2 2 2 2 2 4 13 20 29 24 62 78 71 39 21 25 45 56 16 62 80 73 73 31 4 4
15 14 13 12 10 8 6 6 5 6 6 5 5 4 4 2 2 2 2 2 2 2 2 2 3 13 18 27 22 67 62 64 47 34 30 54 62 34 49 87 92 91 78 9 5
18 16 16 13 12 10 8 7 7 6 6 6 6 5 4 2 3 3 2 2 2 2 2 2 2 7 16 22 24 68 77 64 55 38 36 55 61 58 83 87 99 96 78 14 5
19 18 17 16 16 12 8 7 7 7 6 6 6 6 5 3 4 3 3 3 2 2 2 2 2 4 13 19 24 52 72 67 50 42 33 51 52 75 85 86 98 97 74 5 5
22 23 21 18 18 16 14 8 7 7 7 7 7 7 7 4 5 4 4 4 3 2 2 2 2 2 6 10 21 20 44 64 54 46 33 56 61 80 76 85 90 98 54 7 8
25 24 25 22 22 18 19 14 8 7 8 8 8 8 8 6 6 6 5 4 4 3 2 2 2 2 2 3 3 11 18 45 50 50 41 41 56 69 85 88 83 99 82 11 7
26 26 25 21 23 19 18 18 15 10 9 9 10 10 8 8 6 7 7 6 4 3 3 2 2 2 2 3 6 17 24 41 53 58 46 32 51 74 79 94 74 95 95 16 5
11 17 23 24 21 20 19 16 15 15 15 12 10 12 11 8 8 8 8 6 6 5 4 3 2 2 2 2 4 8 18 41 59 65 51 35 34 67 73 90 94 100 99 72 4
3 5 9 10 15 18 18 17 15 13 13 22 17 15 15 8 10 9 8 8 7 6 5 3 3 2 2 2 2 4 6 34 56 70 73 63 33 35 70 82 76 72 96 51 5
4 3 3 4 6 9 10 11 11 11 12 13 20 21 15 17 9 12 11 9 8 8 7 5 4 3 2 2 2 2 5 22 51 72 74 69 28 28 50 65 85 47 54 25 4
8 5 4 3 4 4 6 7 9 8 10 11 11 16 22 20 17 13 13 10 9 10 10 7 6 4 3 3 2 2 4 15 44 60 69 63 33 23 31 52 72 72 39 8 4
28 22 8 7 8 6 4 4 5 8 7 9 10 13 18 20 22 18 14 15 12 11 11 9 9 6 5 4 3 2 3 10 25 50 33 20 27 15 22 45 64 85 56 9 8
24 24 24 20 20 22 14 7 7 4 6 7 8 9 12 19 22 22 20 15 14 11 8 9 10 8 6 5 4 3 2 4 13 22 2 20 22 6 16 38 69 77 55 64 37
18 18 21 22 25 30 29 28 13 6 6 5 8 11 12 16 20 23 24 19 19 18 18 15 12 11 9 8 6 4 3 2 2 2 3 13 5 4 16 34 71 69 90 94 56
11 12 13 14 18 24 27 26 26 23 11 10 10 12 12 14 18 23 25 26 27 24 19 16 12 15 12 10 9 7 5 3 3 2 2 3 2 5 10 28 58 68 83 86 57
3 5 6 7 9 10 11 18 23 23 22 17 19 15 12 16 17 24 21 25 29 28 25 21 18 17 17 16 12 10 8 7 4 3 3 2 2 2 4 15 50 64 75 70 88
2 2 2 3 3 4 5 6 10 18 21 21 21 22 20 18 19 24 26 25 27 28 26 25 21 18 18 15 14 12 10 8 6 5 4 4 3 2 2 4 22 59 71 72 80
10 11 6 4 3 2 2 3 4 4 11 18 19 21 23 23 22 25 25 27 28 25 25 25 23 20 20 20 18 17 14 11 9 6 6 5 4 3 3 3 10 46 63 59 70
26 26 24 20 11 6 4 3 2 3 3 5 10 16 20 21 21 24 25 23 28 33 29 26 26 21 21 23 20 16 14 12 10 8 7 7 4 7 4 4 5 24 63 66 58
24 31 35 30 26 19 12 8 4 3 3 3 3 6 12 18 16 18 28 28 30 31 35 32 30 24 21 23 22 19 15 13 12 9 7 6 6 6 6 5 5 6 28 42 53
33 42 54 61 66 45 26 23 21 13 9 12 8 4 4 6 9 12 21 36 39 40 39 40 38 30 26 23 21 22 18 15 12 10 8 6 6 7 6 6 8 5 5 17 30
49 47 66 77 86 78 67 66 61 52 48 34 61 43 8 5 6 6 12 36 67 58 53 50 44 37 28 26 27 23 22 19 15 13 10 7 7 7 9 8 7 7 5 4 5
79 64 69 83 96 98 96 71 80 73 68 82 57 100 83 29 9 8 7 13 52 78 68 58 45 47 33 30 27 21 23 24 21 16 13 10 8 8 10 10 9 7 6 6 5

GFSSW_500_rhum_027.txt.gz
RH
4 4 4 4 4 4 4 4 4 4 3 2 2 1 2 2 1 1 2 5 6 10 14 20 26 22 51 70 74 81 84 78 57 32 19 14 19 8 28 42 46 42 40 55 36
5 5 5 5 4 4 4 4 4 4 4 3 3 2 1 2 2 2 1 2 2 4 11 14 15 19 28 70 80 84 74 60 52 37 16 8 8 6 9 40 42 38 35 36 35
10 9 7 6 6 6 5 5 5 5 4 4 3 3 2 1 2 2 2 1 2 2 6 8 7 9 18 47 80 91 73 53 49 44 26 8 7 5 5 5 7 8 18 29 28
12 11 10 9 8 6 6 5 5 5 5 4 4 4 3 2 1 2 2 2 1 2 2 4 6 7 17 37 76 86 74 54 38 48 40 20 8 4 7 27 31 19 4 11 31
16 14 13 12 11 10 8 6 5 5 5 5 5 4 4 3 2 2 2 2 2 1 2 2 3 11 13 21 52 77 78 62 35 38 48 59 16 7 12 35 52 25 9 4 12
18 16 15 14 13 11 9 8 8 6 5 5 6 5 5 3 3 2 2 2 2 2 1 2 2 9 14 19 23 29 54 62 31 32 47 64 30 19 33 25 51 39 14 6 6
17 15 16 17 17 14 12 10 10 9 7 5 6 6 6 3 3 3 2 2 2 2 2 2 2 3 10 13 22 23 27 58 48 44 50 66 52 75 63 55 50 40 14 5 6
21 18 16 17 17 16 15 13 11 10 9 8 6 6 7 3 4 3 3 3 3 2 2 2 2 2 5 11 15 23 13 47 61 45 53 63 65 88 78 70 47 33 20 6 4
24 24 21 19 18 19 19 16 15 13 8 8 8 7 7 5 4 5 4 4 3 3 2 2 2 2 2 6 13 15 12 52 67 56 45 62 68 86 83 79 46 39 28 7 6
11 17 19 21 20 20 19 20 20 19 16 9 8 9 8 7 5 5 4 4 4 4 3 2 2 2 2 2 3 10 16 53 71 60 42 52 66 86 85 70 53 46 43 12 8
3 4 6 12 15 20 19 17 19 20 19 16 11 10 10 9 8 6 6 5 5 5 3 3 2 2 2 2 5 13 29 63 81 66 41 53 68 77 90 68 65 76 60 32 7
4 4 3 3 5 9 14 20 18 17 19 19 19 17 10 11 10 9 7 6 6 6 6 3 3 3 2 2 2 7 19 31 68 56 37 38 57 69 83 71 40 38 56 48 8
4 4 4 4 3 3 4 8 10 16 14 19 17 21 22 11 12 13 10 8 7 7 7 5 5 3 2 2 2 2 6 26 34 48 37 35 34 62 75 88 80 96 44 68 12
13 6 5 6 6 4 3 3 5 8 11 14 16 16 18 20 15 15 13 11 8 8 8 6 5 4 3 2 2 2 4 14 37 46 45 28 30 55 70 77 71 91 31 16 6
22 20 18 11 16 13 7 4 3 3 7 9 11 12 16 19 20 20 18 14 9 10 9 8 8 6 4 3 2 2 3 7 22 48 46 33 22 34 55 67 78 80 64 5 4
20 21 24 24 20 27 18 14 6 7 4 6 8 10 12 13 19 23 19 17 16 12 10 9 9 7 6 4 3 3 2 4 11 23 16 19 15 21 38 52 64 84 93 7 3
10 12 16 21 26 25 26 24 22 11 8 8 7 8 9 12 15 20 20 16 18 13 10 11 8 9 7 5 4 3 2 2 4 5 2 15 16 5 27 37 65 76 93 21 4
4 7 8 9 12 21 22 22 24 20 16 9 8 9 9 10 11 16 23 21 21 21 19 18 10 10 9 8 6 5 3 2 2 2 3 4 3 4 20 26 48 80 92 56 9
2 1 2 2 5 6 7 11 15 23 22 19 16 20 18 13 11 15 15 25 29 26 22 22 15 15 12 13 11 8 6 4 3 3 2 2 2 3 9 29 34 67 76 37 6
9 5 3 2 2 2 2 3 6 12 20 25 26 21 23 23 20 14 16 15 23 26 25 22 19 19 17 16 14 11 11 8 6 4 4 4 3 2 4 14 39 78 64 68 37
21 17 12 8 7 4 2 2 2 4 8 15 24 27 26 25 25 21 16 19 21 25 26 27 22 21 20 14 13 12 10 9 8 8 6 5 4 4 3 5 20 64 64 90 84
19 22 24 17 17 19 14 8 6 3 3 5 12 18 25 24 25 26 22 17 21 23 26 30 29 24 21 20 19 17 15 15 13 10 8 7 6 5 4 3 5 27 61 74 83
46 36 46 32 30 30 25 19 12 7 4 3 4 6 12 16 17 21 26 22 22 30 28 31 32 33 27 24 20 18 17 15 12 11 8 7 5 5 6 5 3 10 39 73 81
68 70 66 52 41 55 51 36 22 13 7 5 4 3 3 10 11 13 20 26 26 33 36 30 32 35 32 29 26 22 19 17 14 13 10 7 6 6 7 6 4 4 16 48 80
66 82 81 68 58 79 69 54 42 38 16 12 11 10 5 4 8 9 12 20 30 34 44 48 34 36 34 33 28 25 24 22 19 16 13 9 8 7 7 7 6 5 7 38 58
65 73 68 81 61 87 81 63 56 63 57 30 37 57 32 12 6 9 9 16 29 37 42 41 48 34 34 35 29 26 25 22 20 16 14 11 10 9 7 6 6 5 4 12 37
62 63 76 100 67 83 85 71 68 68 95 76 56 60 100 78 34 8 9 11 20 37 43 40 37 45 37 35 29 21 20 23 24 21 18 10 12 13 11 8 7 6 6 4 5

GFSSW_500_rhum_030.txt.gz
RH
5 4 4 4 4 4 4 4 4 4 4 3 3 2 2 2 1 2 6 9 15 24 30 25 28 24 61 71 81 85 56 56 46 28 27 27 27 22 36 47 44 56 54 56 46
8 7 7 6 5 5 5 5 4 4 4 4 3 3 2 2 2 1 1 2 3 7 15 21 24 24 77 81 89 89 83 81 56 31 16 14 7 18 32 48 45 42 52 43 29
12 11 10 10 9 7 6 6 6 5 4 5 4 4 3 2 2 2 2 1 2 4 6 9 10 20 66 78 79 83 98 74 53 42 14 8 5 5 38 46 30 35 34 39 32
15 15 14 13 12 11 10 8 7 6 5 5 5 5 4 3 2 2 2 2 1 2 2 6 7 12 20 79 86 88 71 61 51 46 20 8 8 4 6 10 6 8 26 30 31
16 15 15 14 13 13 12 11 9 8 6 6 5 5 5 4 3 2 2 2 2 1 2 2 6 11 20 22 82 86 77 59 52 52 36 19 7 7 7 8 7 3 3 12 23
18 17 16 16 14 16 16 14 11 9 8 7 6 6 6 4 4 4 2 2 2 2 1 2 2 6 13 21 58 83 79 60 49 44 41 40 14 17 20 9 6 4 4 3 6
21 20 17 15 13 16 18 19 16 12 9 9 8 6 6 4 5 4 3 2 2 2 2 2 2 2 8 20 22 63 73 72 57 44 40 52 42 51 50 43 24 6 5 3 4
10 16 20 19 17 15 15 16 18 18 13 10 9 8 8 5 6 5 3 3 3 2 2 2 2 2 3 8 14 21 28 33 75 52 53 54 75 87 66 54 39 10 5 4 7
4 4 6 11 16 19 19 18 18 17 18 15 11 9 9 6 5 5 5 3 3 3 2 2 2 2 2 3 11 14 19 24 70 66 80 59 69 85 81 59 49 16 7 5 5
4 4 4 4 4 8 14 18 19 18 18 19 16 13 10 9 7 6 6 4 4 4 3 2 2 2 2 2 3 11 15 21 66 69 68 72 68 84 86 66 54 20 6 7 6
4 4 4 4 4 4 4 7 15 18 19 19 20 18 16 11 9 7 6 5 4 4 4 4 3 2 2 2 3 10 15 22 65 70 63 70 79 74 90 75 61 38 5 6 8
16 13 10 5 4 4 4 4 4 8 18 20 19 22 21 16 11 10 8 7 5 5 7 5 3 3 2 2 2 4 12 20 44 71 66 54 84 81 83 80 84 60 7 6 8
22 22 20 18 14 7 4 4 4 3 4 11 18 20 22 19 21 12 10 10 9 7 6 7 5 4 2 2 2 2 6 20 23 72 60 59 55 80 82 82 82 62 19 11 8
20 18 18 18 18 17 14 8 4 4 4 4 8 13 18 19 16 18 14 13 11 9 9 8 7 5 3 2 2 2 4 18 27 46 59 54 43 60 62 83 56 55 84 54 16
15 14 12 14 16 15 17 18 15 6 9 5 5 7 12 17 18 20 22 14 11 14 10 8 9 9 5 4 2 2 2 6 23 33 57 51 36 42 56 66 53 75 82 39 38
6 7 7 8 11 12 14 19 19 25 16 8 7 7 7 10 15 16 20 21 23 17 11 11 11 10 9 5 3 3 2 3 9 25 23 20 23 17 34 44 63 77 85 49 14
2 2 2 2 3 5 8 11 19 25 20 14 9 8 8 8 10 14 16 16 18 18 11 13 8 10 9 6 4 2 2 2 3 5 3 11 13 8 26 47 66 76 78 49 29
12 10 6 3 2 2 2 4 8 14 23 17 16 16 14 11 10 12 15 14 17 24 26 20 14 10 10 8 6 3 2 2 2 2 4 3 3 6 16 29 57 62 81 54 18
18 16 13 11 8 4 2 2 3 6 12 21 22 23 24 20 13 12 16 18 18 27 29 22 19 13 12 12 10 6 4 3 3 2 3 4 2 3 9 25 35 46 68 34 17
23 15 22 28 24 10 7 6 4 2 4 8 12 19 22 24 23 17 15 16 22 35 31 26 23 18 21 16 14 12 10 7 5 4 3 3 3 3 5 17 31 48 55 50 29
18 20 26 37 45 30 18 15 13 6 3 3 4 12 16 20 24 25 18 15 23 20 22 30 27 26 23 16 12 13 13 8 8 6 5 5 7 4 3 9 27 34 47 57 65
18 23 18 51 61 42 30 21 21 23 8 5 3 4 8 13 20 24 26 19 16 17 30 37 31 32 21 27 22 18 16 13 11 8 7 7 17 5 4 4 20 34 48 60 70
24 25 17 29 54 53 41 32 29 27 20 10 6 5 5 7 13 20 23 26 25 21 29 27 33 37 34 29 25 23 17 14 14 12 9 9 8 6 7 5 5 28 46 55 48
47 34 23 24 46 68 52 50 57 36 24 19 12 8 7 13 15 16 21 25 28 27 27 29 32 37 37 38 34 27 19 17 15 13 10 8 9 6 7 7 4 6 35 59 66
69 43 36 21 36 66 56 67 68 82 47 24 34 23 13 14 27 21 18 22 26 28 31 34 33 31 40 31 27 22 24 21 16 14 12 12 9 9 8 7 7 3 7 32 66
96 52 49 25 26 35 60 69 71 68 61 67 60 86 95 22 26 52 18 19 20 25 29 34 38 27 31 38 33 27 24 21 20 17 16 13 12 11 11 9 7 6 4 4 29
98 84 60 43 26 30 40 52 59 60 72 77 67 78 100 100 25 29 27 55 21 21 26 32 38 27 33 41 38 31 26 25 24 21 21 18 19 19 17 15 12 8 6 4 7

GFSSW_500_rhum_033.txt.gz
RH
6 6 6 6 6 5 4 4 4 4 3 4 4 3 2 2 1 1 6 7 24 33 24 23 28 70 58 55 48 43 87 96 92 74 70 18 27 39 40 45 47 49 58 49 42
10 9 9 8 8 8 7 5 5 5 4 4 4 4 3 2 2 1 1 4 7 20 30 28 29 26 52 58 56 46 97 84 99 81 89 32 26 20 30 32 38 42 45 55 45
12 12 12 12 12 10 9 8 7 5 5 5 4 4 4 3 2 1 2 1 2 4 10 18 17 26 44 65 65 57 97 97 83 40 77 56 37 8 14 27 38 36 38 48 33
15 14 14 14 14 13 12 10 9 8 6 6 5 5 4 4 3 2 2 2 1 2 4 7 11 19 36 69 70 72 82 94 83 42 36 79 84 58 40 34 36 27 33 41 31
18 17 16 16 15 14 12 11 11 10 9 8 6 5 5 4 4 4 2 2 2 1 2 2 5 17 32 78 72 67 76 74 53 52 37 24 85 100 13 11 9 8 17 27 33
19 21 20 19 18 16 14 12 13 14 13 10 8 6 6 5 4 5 3 2 2 2 1 2 2 11 23 44 73 88 83 73 58 60 44 24 74 21 42 7 6 5 3 7 20
6 6 9 15 20 20 18 14 14 15 16 16 10 8 7 5 5 7 4 3 2 2 2 1 2 3 13 22 23 56 68 80 58 57 53 44 66 45 64 14 10 7 3 2 3
5 5 6 6 6 11 19 19 16 15 15 16 16 10 9 6 6 6 6 4 3 2 2 2 1 2 4 17 14 25 63 75 62 57 53 53 94 53 50 24 28 17 6 3 2
4 4 4 4 5 5 5 11 19 19 19 18 18 16 13 10 6 6 6 6 3 3 2 2 2 2 2 3 12 17 39 64 92 66 68 64 88 97 76 46 35 28 9 4 3
4 4 4 4 4 4 4 5 4 12 21 20 19 20 16 17 8 8 7 6 5 3 3 2 2 2 2 2 3 11 16 85 92 95 81 85 74 95 97 96 57 51 20 6 3
14 11 8 5 4 4 4 4 4 5 4 15 19 20 18 18 18 8 8 7 7 4 4 3 2 2 2 2 3 12 74 76 83 90 92 90 95 78 98 92 79 58 40 8 4
18 18 19 17 14 12 10 8 5 4 4 4 10 20 18 20 25 16 10 8 7 6 6 5 4 3 3 3 3 4 42 72 81 87 97 96 96 96 97 99 90 75 61 35 5
15 16 17 16 17 17 15 13 12 8 4 4 4 6 20 20 23 25 16 12 9 9 8 5 6 4 2 2 2 2 3 49 70 82 86 97 95 97 96 100 88 82 56 51 9
8 8 8 7 8 11 15 16 14 13 9 5 5 5 5 15 20 22 23 19 11 8 10 8 8 7 3 2 2 2 2 9 64 76 75 84 86 88 82 94 96 80 60 41 14
3 2 2 3 3 3 4 9 13 12 14 13 5 5 6 5 12 22 27 23 16 12 11 8 8 8 4 3 2 2 3 4 14 62 75 74 81 78 87 84 90 84 67 44 22
3 3 3 2 1 1 2 2 4 7 9 17 11 11 7 7 7 11 20 28 36 24 15 14 13 10 10 7 4 3 3 2 6 20 36 49 60 62 68 78 93 91 73 50 23
6 6 7 8 8 6 3 2 2 2 14 25 12 14 13 9 9 9 10 21 19 19 13 13 12 14 12 10 6 4 2 3 6 5 5 25 19 25 67 69 79 90 92 70 48
8 8 8 9 12 11 5 4 3 6 33 12 11 10 14 16 12 11 9 12 21 28 35 25 16 12 12 10 8 4 3 2 2 4 11 7 12 8 32 71 72 87 91 87 64
9 11 11 13 14 13 6 15 84 74 29 16 6 14 21 26 22 16 13 11 14 21 26 33 26 23 19 14 11 8 4 3 33 34 28 26 22 14 47 55 32 63 72 90 78
17 32 20 18 22 12 14 100 98 100 56 33 23 27 45 87 31 23 22 18 16 16 25 44 72 36 24 20 14 13 10 7 13 36 35 33 34 35 11 7 23 22 38 65 76
39 54 44 30 26 16 86 100 65 36 41 51 62 42 69 97 30 33 44 45 21 18 22 41 61 59 52 18 13 12 12 11 10 8 35 41 33 32 39 8 12 23 31 57 53
70 68 53 43 32 28 70 33 41 31 30 30 35 55 98 100 49 32 100 80 22 28 28 47 49 56 28 26 24 16 14 11 8 8 11 35 35 33 32 8 11 24 35 39 41
79 85 62 52 45 26 24 32 100 100 100 30 14 38 95 100 95 57 56 22 22 34 32 32 34 42 81 72 31 24 17 14 13 16 20 24 43 18 13 4 7 20 28 39 57
93 100 95 88 56 28 20 47 86 100 100 66 31 18 25 100 100 100 84 27 30 27 20 26 35 38 60 42 44 30 24 22 16 14 23 20 40 21 8 9 5 12 27 34 39
98 99 100 99 70 29 26 53 83 100 100 87 47 76 48 21 97 100 95 38 40 30 42 35 41 41 63 96 80 63 32 24 19 18 15 48 39 57 18 11 5 7 17 25 27
100 100 100 96 97 62 37 82 76 63 58 59 66 97 100 37 27 99 97 72 53 31 48 37 37 51 63 94 84 60 43 32 35 24 19 27 57 63 44 20 8 4 6 6 9
99 100 100 98 100 99 60 39 38 40 50 54 67 86 89 96 29 39 98 85 69 43 42 35 46 47 42 61 46 48 27 32 64 54 32 20 38 70 57 12 12 9 6 6 11

GFSSW_500_rhum_036.txt.gz
RH
7 7 7 7 7 6 6 5 4 4 3 3 3 3 3 1 2 1 4 7 24 32 39 40 39 54 54 54 76 78 96 89 99 95 98 39 18 24 26 28 32 41 44 48 45
9 10 10 10 10 10 8 8 7 5 4 4 4 3 3 3 1 2 1 3 7 25 26 24 26 46 46 48 55 63 89 97 94 98 96 99 34 28 35 25 18 33 38 44 47
12 12 13 13 13 13 12 10 9 8 6 4 4 4 4 4 3 1 2 1 3 7 19 27 17 22 32 37 52 46 78 70 66 75 89 96 40 15 9 8 11 23 38 37 50
16 15 15 14 14 14 14 12 11 10 9 7 5 4 4 4 4 3 2 2 1 2 5 9 12 11 24 30 55 58 88 77 73 42 63 98 91 63 23 28 22 27 27 32 44
16 17 18 18 17 15 14 13 12 11 10 9 8 6 4 4 4 4 3 2 2 1 1 2 6 14 13 37 57 66 69 95 94 70 44 80 86 97 72 7 11 25 18 18 38
6 5 6 8 13 18 18 16 14 12 11 12 11 9 7 5 4 5 4 3 2 2 1 2 4 10 16 24 53 84 95 98 83 98 68 41 67 80 72 9 5 4 4 5 14
4 4 5 5 5 6 6 15 18 16 13 13 14 13 10 10 5 5 5 4 3 2 2 1 2 3 13 16 45 84 93 86 94 92 96 52 95 84 97 65 13 9 4 3 3
4 4 4 4 4 4 5 5 6 16 18 16 14 14 14 12 7 6 6 5 4 3 2 2 1 2 4 19 33 26 59 72 86 97 77 48 67 88 46 43 30 22 13 5 3
4 4 4 4 3 3 4 4 4 5 6 18 18 16 17 16 11 9 7 6 5 4 2 2 2 1 2 6 15 14 21 29 92 73 66 44 81 92 92 96 45 32 34 11 5
5 5 6 7 7 6 5 3 4 4 4 4 7 20 19 21 16 12 11 9 6 6 3 2 2 2 2 2 2 8 10 39 90 93 76 79 71 93 69 66 69 43 40 29 6
13 13 12 12 12 11 11 12 7 4 4 4 5 4 13 24 24 18 15 12 7 6 4 3 3 2 2 2 2 10 21 28 90 84 95 64 86 83 75 91 98 47 40 50 45
10 11 10 11 12 12 12 13 12 11 5 6 4 4 4 12 24 24 17 14 9 6 6 4 3 3 2 3 2 4 16 76 73 93 86 95 72 98 67 45 90 95 50 49 49
6 6 6 6 6 7 8 10 11 10 7 7 10 6 6 5 10 28 26 22 17 11 8 5 4 4 3 2 2 2 3 33 74 81 94 94 94 93 88 90 78 70 85 43 48
5 4 2 2 2 2 2 3 3 8 7 7 11 12 11 5 5 11 27 28 26 12 12 8 7 5 4 3 2 2 2 9 79 72 77 94 85 76 98 88 94 84 76 37 55
2 3 3 4 4 5 3 2 2 2 4 10 8 10 13 10 9 8 11 29 23 20 14 8 7 5 6 4 3 2 5 3 58 75 71 72 78 79 83 69 90 98 78 72 49
5 5 8 11 11 12 15 10 5 2 2 48 22 10 12 14 14 12 10 14 34 38 26 15 14 10 8 7 3 3 6 20 10 64 64 66 77 74 74 75 71 78 87 81 62
6 7 8 10 12 17 29 20 11 5 21 63 15 6 9 10 17 19 11 10 17 29 24 24 15 14 10 11 7 4 4 24 29 12 10 40 65 45 72 86 91 94 89 96 68
9 9 14 17 22 29 34 23 14 10 93 61 29 22 9 12 16 27 21 12 11 26 44 23 17 12 13 9 9 6 4 2 4 7 21 18 13 7 43 68 85 90 96 94 72
12 15 20 35 36 42 35 24 65 18 18 46 46 100 93 84 30 63 28 15 11 13 26 38 23 28 21 15 13 13 6 6 12 34 34 32 26 21 28 44 68 71 75 89 76
23 37 28 68 66 54 41 36 64 25 12 44 73 100 99 90 53 69 85 69 51 16 25 31 69 40 28 32 17 14 22 12 18 34 39 37 33 31 25 16 39 67 72 84 85
23 63 61 92 87 79 66 64 34 25 19 48 72 91 100 99 72 65 93 100 98 100 55 38 62 67 66 36 20 20 41 25 17 13 42 44 33 34 35 34 40 55 44 80 85
66 84 80 95 91 100 100 62 51 26 52 100 80 66 97 99 100 100 100 94 81 90 79 47 54 67 85 68 50 28 20 18 13 13 33 40 40 38 36 36 35 16 30 59 90
74 68 79 78 96 99 98 69 29 23 99 83 99 65 77 99 98 99 98 100 80 80 100 92 35 62 90 90 79 43 25 22 31 22 15 32 40 44 38 43 37 8 33 56 59
45 46 48 44 100 100 97 61 41 41 86 100 91 100 31 91 100 98 98 99 100 91 61 51 42 61 66 41 77 66 58 47 37 22 24 32 46 45 44 40 36 8 11 23 37
38 47 25 37 80 100 94 68 60 63 100 100 72 68 24 54 100 99 98 99 100 89 60 62 55 64 86 86 87 60 44 51 20 32 22 46 48 51 36 29 26 7 14 32 52
36 56 39 55 60 100 90 76 45 45 51 36 52 65 100 100 98 100 99 100 98 95 74 37 46 67 68 89 93 89 75 47 58 44 63 50 54 55 58 16 19 6 5 9 25
37 59 86 88 82 80 100 100 32 45 57 56 52 59 47 96 98 95 100 100 98 100 99 90 73 64 63 78 82 100 90 79 69 63 64 51 59 64 62 64 38 12 5 5 7

GFSSW_500_rhum_042.txt.gz
RH
8 7 6 6 6 6 7 7 7 6 4 4 3 3 2 3 2 2 3 8 20 26 27 35 43 41 53 54 76 82 82 85 89 90 87 74 68 88 86 40 46 53 49 48 49
12 12 11 9 8 8 9 9 8 8 7 5 4 4 3 2 3 2 2 2 9 25 26 31 41 40 47 41 66 84 95 93 89 94 95 97 73 35 37 15 34 36 37 46 47
8 9 11 12 12 11 11 11 10 10 9 8 5 4 4 3 3 3 2 2 2 10 25 27 21 27 30 37 56 72 72 72 77 93 80 63 78 18 10 14 14 20 32 41 45
6 6 7 8 8 9 10 11 12 11 10 10 9 6 5 4 4 3 3 2 2 2 8 24 22 23 21 43 39 55 64 52 57 91 100 83 58 82 18 12 13 24 32 26 42
4 4 4 4 4 4 6 7 8 10 11 11 11 10 8 7 4 4 4 3 2 2 2 10 21 26 25 20 29 42 49 59 68 65 54 88 76 78 39 5 5 9 23 20 33
3 3 3 3 3 3 3 3 4 5 8 9 10 12 11 10 6 6 4 4 4 3 2 2 10 27 35 26 14 51 62 61 95 81 44 52 57 54 24 35 12 12 7 7 17
4 4 4 3 3 3 2 2 3 3 3 4 8 10 12 14 9 7 10 4 5 4 3 2 2 4 19 20 26 38 47 37 67 67 69 42 26 48 64 69 31 26 24 10 4
11 10 9 9 8 7 6 4 3 2 2 3 3 5 7 14 14 14 12 10 6 6 5 2 2 2 7 18 23 13 20 12 30 86 87 69 29 39 54 78 53 35 32 22 6
10 9 9 8 8 8 8 7 7 6 5 3 2 3 4 6 14 13 14 14 8 6 6 5 2 2 2 6 20 12 8 11 49 89 98 98 82 53 32 50 60 57 34 15 6
10 11 10 9 8 8 8 8 6 6 6 6 6 3 3 4 5 10 17 16 13 9 7 6 4 2 2 2 2 4 4 10 25 75 65 92 89 71 37 49 62 73 67 44 44
7 9 10 9 8 7 6 5 5 6 6 4 5 5 6 4 3 4 7 23 20 12 8 8 5 4 3 2 2 12 10 6 33 37 94 57 78 80 62 44 64 76 62 61 37
12 10 10 9 9 8 7 6 5 4 5 5 4 4 6 6 4 4 5 7 18 19 16 9 4 6 4 3 2 4 8 8 38 32 48 74 99 93 81 43 46 36 93 79 41
13 11 10 8 7 6 5 5 5 5 4 4 4 4 5 6 6 10 8 6 8 26 22 15 9 11 7 4 3 3 3 8 10 41 34 85 96 96 93 82 55 52 76 82 71
11 8 7 3 3 4 3 4 4 3 3 3 4 4 3 5 7 15 13 12 6 12 35 26 22 14 12 7 4 2 3 4 12 35 28 84 86 98 93 88 56 56 72 60 50
5 2 3 3 5 6 7 8 8 9 7 5 4 6 8 4 5 11 12 16 11 7 18 18 24 16 10 8 6 3 3 4 11 31 75 86 83 91 83 75 49 48 68 82 63
3 4 6 5 6 11 16 12 8 9 10 12 10 8 10 15 6 7 14 12 14 16 11 25 35 32 14 15 10 6 5 4 10 52 66 78 83 63 82 68 65 62 79 65 62
5 6 7 8 11 14 25 18 16 11 27 18 11 13 12 31 25 16 14 15 16 18 8 23 42 40 43 27 20 10 7 6 15 52 46 40 79 28 48 68 68 68 83 68 58
10 9 9 14 14 14 24 29 26 18 13 34 28 18 9 57 75 47 23 19 15 15 14 14 26 33 46 28 27 14 8 4 3 7 10 10 27 17 54 86 71 82 76 76 75
11 9 9 23 17 17 39 33 27 32 20 15 43 31 14 11 86 73 68 66 44 20 18 17 11 47 49 33 25 20 7 8 5 7 5 12 8 22 37 45 61 36 94 62 80
10 9 9 23 17 21 46 46 42 32 26 24 51 62 35 18 17 76 66 90 100 55 21 18 9 34 50 71 39 15 18 13 8 8 8 5 5 6 18 22 26 47 42 26 43
10 11 19 28 19 33 68 57 51 41 29 45 98 94 62 33 17 19 99 99 100 100 41 27 10 23 92 71 35 22 23 23 25 13 10 6 3 6 15 20 30 43 59 36 22
9 12 26 22 40 68 80 70 65 53 36 45 61 82 64 49 30 18 54 97 95 98 100 51 17 23 54 40 51 59 28 48 36 14 11 6 19 22 11 20 23 31 62 52 20
9 20 40 30 66 87 89 94 91 73 49 49 40 48 44 38 34 30 20 89 100 98 100 80 42 18 36 70 93 87 50 31 22 26 16 10 20 22 34 38 38 36 34 65 31
9 34 40 56 70 79 85 98 97 92 65 53 38 29 24 30 29 24 22 23 97 100 100 93 53 24 28 68 94 68 68 50 39 34 16 9 31 45 45 40 38 32 27 38 49
11 46 53 67 99 98 94 97 100 99 89 79 66 49 34 29 63 59 31 17 92 100 100 92 68 43 31 50 74 49 67 70 52 34 19 13 34 48 46 40 39 39 27 44 58
22 63 82 83 90 100 100 100 100 100 95 100 100 97 75 41 36 44 65 66 97 100 99 84 96 43 28 58 72 63 66 63 67 50 27 22 34 55 51 49 40 42 38 37 32
46 57 75 89 97 100 100 99 100 99 100 100 98 95 97 64 45 52 86 99 96 99 100 92 96 56 44 85 90 86 84 81 65 64 50 29 28 54 57 58 53 48 50 45 41

GFSSW_500_rhum_045.txt.gz
RH
10 9 9 8 7 6 6 6 6 7 6 6 4 3 3 3 3 2 2 6 16 26 26 29 34 44 48 54 87 99 84 88 94 95 90 92 95 88 71 47 59 60 63 54 46
9 9 9 9 10 10 9 8 8 9 8 7 7 5 3 3 3 3 2 2 6 22 27 33 35 44 40 53 82 95 84 86 93 100 96 91 84 78 44 38 46 43 45 51 46
6 6 6 7 7 7 8 9 9 10 11 11 9 8 6 4 4 3 3 2 2 10 26 22 19 22 30 42 55 71 74 78 82 99 97 84 44 25 17 12 26 29 40 44 49
4 4 4 4 4 4 4 5 7 8 10 12 12 11 10 7 5 3 4 3 2 2 14 26 24 23 26 46 54 72 71 74 69 82 70 78 30 41 22 15 12 27 32 32 47
3 3 3 3 3 3 3 3 3 4 6 8 10 12 13 12 6 4 4 4 3 2 2 18 31 28 26 30 40 45 59 89 76 79 69 73 61 52 12 11 14 17 14 19 42
6 5 4 3 3 3 3 2 3 3 3 4 5 8 10 15 11 8 5 5 4 4 2 2 21 30 32 26 43 48 47 60 74 85 81 88 55 26 15 11 12 9 5 7 28
11 10 9 8 8 7 6 4 3 3 2 2 3 4 6 8 13 12 11 7 5 5 4 2 2 15 23 22 57 30 35 67 74 63 59 84 50 34 26 23 22 20 12 4 7
11 10 9 9 8 8 7 6 6 6 5 3 2 2 4 5 7 14 11 12 7 6 5 4 2 2 15 14 30 18 15 32 53 53 38 45 42 43 52 40 31 32 32 8 4
10 9 8 8 8 10 10 8 6 6 6 5 5 4 4 3 4 7 15 14 13 7 6 5 4 2 3 7 10 13 11 13 31 37 38 49 35 31 41 56 56 41 40 17 5
8 7 6 6 7 6 8 10 9 8 7 6 5 6 6 5 4 4 6 18 16 15 8 5 5 4 2 2 2 3 5 11 31 46 60 31 64 38 33 58 71 50 56 50 43
11 13 13 12 11 11 10 8 8 8 8 7 5 5 6 5 6 5 5 6 18 15 15 10 6 4 4 2 2 4 5 9 30 81 94 53 46 60 41 38 53 69 75 56 42
19 18 17 13 12 11 10 8 8 7 7 6 6 6 4 5 6 8 9 6 6 17 19 16 7 8 9 5 3 3 3 5 18 52 44 51 29 77 47 50 55 64 71 73 79
18 17 15 13 12 10 8 6 6 7 6 5 4 4 5 4 5 6 9 9 5 7 21 17 18 18 10 8 5 3 2 4 14 63 42 57 36 31 59 43 49 55 94 88 80
20 15 11 7 6 3 3 5 9 10 6 5 4 4 3 4 4 5 7 11 10 5 10 20 26 26 17 12 8 4 3 4 13 75 38 64 62 36 84 26 36 77 81 89 98
18 6 5 4 3 4 6 10 13 8 7 6 6 5 4 4 7 9 5 8 15 12 7 9 25 21 25 12 12 7 4 4 10 40 78 55 43 92 58 20 45 57 79 78 91
8 3 4 3 4 9 10 10 15 13 11 10 12 8 11 6 5 13 14 6 11 17 11 6 29 30 28 32 18 11 6 4 14 36 50 38 42 39 29 13 48 56 76 81 68
3 4 6 6 6 8 9 12 14 14 19 20 22 14 11 17 10 8 13 18 11 20 20 10 9 33 43 50 36 18 9 6 8 36 4 10 33 10 8 21 36 51 60 56 71
4 6 9 7 7 11 12 14 14 14 24 29 27 18 13 34 31 21 8 33 20 18 29 19 10 17 40 44 39 24 15 6 4 4 5 7 7 3 8 25 38 62 64 65 73
6 8 9 8 11 17 17 17 21 31 37 37 32 20 15 14 43 44 28 58 48 19 36 33 12 10 42 45 55 32 15 14 7 4 6 4 9 4 14 30 66 51 52 52 78
8 8 10 9 15 19 20 26 42 45 49 48 35 27 20 20 18 50 85 87 85 60 39 44 22 12 19 70 77 50 32 24 11 6 4 3 8 3 13 24 33 44 35 27 63
10 8 9 9 23 24 31 50 57 60 65 58 44 36 27 20 40 59 44 92 100 97 62 38 30 28 27 64 54 52 30 22 28 8 4 3 3 3 5 30 33 37 26 36 42
9 9 8 12 31 36 57 59 72 75 78 62 54 42 30 23 40 78 47 45 95 97 100 41 29 53 24 39 62 71 48 34 23 10 7 4 2 3 5 18 51 48 39 30 46
9 8 9 29 42 63 79 92 87 87 84 70 65 51 44 31 32 50 65 40 27 92 100 92 34 36 43 52 73 91 65 39 20 31 16 9 4 9 5 11 32 59 54 43 33
8 9 23 35 40 59 87 100 100 91 97 95 69 73 57 48 30 27 34 44 31 25 100 100 73 34 53 81 98 79 64 45 33 29 13 7 15 16 8 10 27 43 49 24 16
9 21 53 40 58 78 90 97 100 100 100 98 86 77 78 74 60 45 24 18 34 28 51 100 83 48 47 94 92 65 58 48 30 18 15 11 27 28 42 48 46 48 33 31 18
27 53 52 59 79 96 99 99 100 100 100 100 94 88 91 85 83 60 44 29 24 31 22 98 100 61 40 87 100 84 99 58 36 29 27 14 34 51 54 50 42 38 38 33 13
48 48 67 79 100 100 98 98 100 100 100 100 100 100 100 99 78 64 46 40 24 26 22 57 98 56 43 75 100 100 100 84 76 53 37 15 23 48 53 46 40 38 39 36 10

GFSSW_500_rhum_048.txt.gz
RH
9 9 8 9 9 9 8 7 8 9 9 9 8 5 4 4 3 2 2 2 5 20 26 26 30 40 50 55 58 80 88 87 98 97 95 97 96 81 77 73 48 52 54 52 44
7 7 7 7 6 6 8 9 9 10 10 10 10 8 6 5 4 3 2 2 5 17 23 30 30 39 45 59 68 86 78 91 89 95 97 96 86 78 91 51 38 34 41 46 41
4 4 4 4 4 4 5 6 7 8 10 11 11 11 10 7 5 3 4 3 2 8 19 23 20 31 34 52 64 91 97 91 86 100 95 89 83 62 43 38 24 29 44 40 44
3 3 3 3 3 3 3 3 4 5 6 8 10 12 12 11 7 6 5 4 2 2 9 23 22 32 42 59 49 63 82 82 98 91 95 61 34 33 11 15 17 26 33 37 44
4 4 4 3 3 3 3 3 3 3 3 4 5 8 10 11 11 10 6 5 4 2 2 23 26 32 44 49 54 50 72 80 78 94 71 68 26 9 7 9 17 12 18 35 36
10 10 9 8 7 7 6 5 4 3 3 3 3 4 6 6 8 13 10 6 5 4 2 3 25 29 38 40 58 57 56 68 72 88 80 75 29 6 3 6 5 6 11 23 26
12 11 10 9 8 7 7 7 7 6 6 4 3 3 3 4 5 9 13 10 8 6 5 2 4 25 28 30 61 39 42 51 59 76 87 72 42 9 10 12 10 5 5 13 19
12 11 10 9 7 7 7 6 6 7 6 6 6 6 6 3 3 5 7 13 12 7 5 4 2 4 22 27 38 29 26 44 55 50 83 77 45 24 19 22 22 20 8 4 3
11 10 9 9 8 8 6 8 6 6 6 6 6 6 6 7 6 4 4 7 16 13 8 5 4 2 2 17 26 25 19 35 46 70 67 88 46 30 36 30 28 24 13 6 4
14 13 12 12 11 11 11 11 10 11 8 6 8 8 7 6 6 7 6 4 7 18 14 8 5 4 2 2 9 22 17 23 35 63 65 70 49 39 46 44 33 28 23 19 30
17 16 13 12 13 13 12 11 12 11 9 8 7 7 8 8 7 6 6 7 4 6 14 15 11 5 5 3 3 10 16 25 40 42 48 66 70 35 41 59 47 35 37 35 43
18 18 14 16 16 14 11 10 10 9 9 8 7 7 7 7 7 7 5 6 8 5 6 15 12 14 9 7 4 3 4 10 38 33 23 41 71 42 40 55 63 56 54 51 64
22 21 20 20 19 18 14 11 8 6 5 5 6 6 5 7 6 6 6 6 6 8 5 5 19 21 18 11 6 4 2 4 22 54 30 31 69 72 54 36 33 41 53 44 59
28 27 26 22 18 9 8 6 4 3 5 6 5 5 5 5 6 4 5 6 5 8 11 6 10 20 31 19 11 7 4 4 9 45 46 35 28 72 58 52 37 33 41 63 53
32 30 24 16 9 3 3 3 4 7 6 6 6 8 7 6 5 5 5 5 5 6 12 9 7 9 28 25 20 12 7 4 7 20 42 35 23 23 32 46 47 26 30 63 66
36 22 11 6 3 4 4 6 7 8 8 8 8 8 11 14 13 8 5 6 8 7 9 15 14 10 17 33 41 28 13 6 7 14 24 18 18 4 13 10 38 31 48 73 67
29 8 4 3 4 5 6 8 10 9 9 8 9 11 17 17 20 14 7 8 7 12 8 12 18 13 15 32 48 33 19 8 6 11 2 8 28 2 7 29 38 48 68 77 74
14 4 3 4 6 6 8 12 12 14 15 15 21 30 28 26 25 19 10 8 12 8 13 10 18 22 14 20 45 45 23 13 6 4 3 8 10 8 7 28 43 63 77 78 82
4 4 4 5 6 8 10 12 16 17 19 25 38 39 34 33 34 29 22 11 13 14 12 16 12 32 27 29 53 58 35 21 13 5 3 3 6 6 10 19 39 72 78 68 73
4 6 6 7 7 9 13 20 21 24 34 34 47 48 43 40 40 34 24 16 15 25 18 15 13 27 48 32 66 54 50 38 22 11 4 3 3 4 4 9 24 68 73 59 66
5 7 6 8 9 12 19 28 28 35 44 57 60 60 56 49 46 41 30 21 16 17 28 21 18 21 52 45 58 63 67 47 40 20 8 4 3 5 3 6 18 48 67 60 58
8 6 8 9 12 20 31 32 38 58 75 73 75 74 66 60 52 45 38 26 19 17 18 32 23 29 35 72 59 88 78 59 40 20 12 10 5 3 6 7 17 40 77 68 56
7 7 12 20 32 42 47 58 72 90 87 79 86 86 82 70 56 46 32 25 20 26 65 50 60 47 31 97 64 96 91 71 39 37 14 12 5 6 4 4 12 27 54 77 58
8 14 30 35 45 60 78 90 92 83 78 85 97 96 95 79 55 45 34 36 29 64 75 58 63 83 41 67 81 72 99 80 48 34 16 13 9 6 11 7 11 20 55 78 60
11 36 32 46 50 54 72 77 84 84 82 81 98 100 100 100 75 62 61 59 48 77 56 50 61 98 82 52 92 68 99 90 52 32 22 14 8 8 24 23 9 18 37 29 31
42 38 46 41 42 53 63 69 68 70 86 100 100 100 100 100 100 98 100 95 78 50 46 40 41 76 95 66 76 66 95 97 65 39 23 17 11 20 28 16 12 11 22 28 31
42 48 38 36 48 56 57 60 64 70 98 100 100 100 100 100 100 100 99 98 78 50 34 37 36 44 100 68 71 78 60 94 76 46 35 22 15 28 19 22 30 24 20 21 9